| time (UTC) | temp C | wind direction | speed KPH | gust KPH | rain 1hr cm | rain 24hr cm | rain mn cm | humidity % | barometer mb |
| 20260831184610 | 26 | 241 | 1.6 | 8.0 | 0.00 | 0.00 | 0.00 | 29 | 1021.3 |
| 20260831183102 | 27 | 243 | 4.8 | 11.3 | 0.00 | 0.00 | 0.00 | 28 | 1021.2 |
| 20260831181606 | 28 | 267 | 4.8 | 14.5 | 0.00 | 0.00 | 0.00 | 27 | 1021.1 |
| 20260831180107 | 28 | 261 | 11.3 | 20.9 | 0.00 | 0.00 | 0.00 | 27 | 1021.0 |
| 20260831174602 | 28 | 278 | 12.9 | 22.5 | 0.00 | 0.00 | 0.00 | 27 | 1020.9 |
| 20260831173108 | 29 | 253 | 8.0 | 17.7 | 0.00 | 0.00 | 0.00 | 27 | 1021.0 |
| 20260831171607 | 29 | 227 | 11.3 | 22.5 | 0.00 | 0.00 | 0.00 | 26 | 1021.0 |
| 20260831170110 | 30 | 266 | 11.3 | 20.9 | 0.00 | 0.00 | 0.00 | 25 | 1020.9 |
| 20260831164605 | 30 | 271 | 6.4 | 27.4 | 0.00 | 0.00 | 0.00 | 25 | 1020.9 |
| 20260831163106 | 30 | 236 | 11.3 | 27.4 | 0.00 | 0.00 | 0.00 | 25 | 1020.9 |
| 20260831161629 | 29 | 221 | 16.1 | 25.7 | 0.00 | 0.00 | 0.00 | 26 | 1021.0 |
| 20260831160136 | 30 | 248 | 11.3 | 22.5 | 0.00 | 0.00 | 0.00 | 26 | 1021.0 |
| 20260831154631 | 30 | 201 | 9.7 | 22.5 | 0.00 | 0.00 | 0.00 | 26 | 1021.1 |
| 20260831153134 | 30 | 210 | 12.9 | 29.0 | 0.00 | 0.00 | 0.00 | 26 | 1021.1 |
| 20260831151611 | 30 | 233 | 8.0 | 20.9 | 0.00 | 0.00 | 0.00 | 26 | 1021.1 |
| 20260831150107 | 29 | 269 | 3.2 | 24.1 | 0.00 | 0.00 | 0.00 | 26 | 1021.3 |
| 20260831144607 | 29 | 233 | 11.3 | 22.5 | 0.00 | 0.00 | 0.00 | 26 | 1021.3 |
| 20260831143111 | 29 | 271 | 9.7 | 22.5 | 0.00 | 0.00 | 0.00 | 27 | 1021.3 |
| 20260831141604 | 29 | 311 | 11.3 | 25.7 | 0.00 | 0.00 | 0.00 | 26 | 1021.6 |
| 20260831134611 | 29 | 235 | 1.6 | 19.3 | 0.00 | 0.00 | 0.00 | 26 | 1021.9 |
| 20260831133103 | 29 | 257 | 4.8 | 16.1 | 0.00 | 0.00 | 0.00 | 26 | 1021.9 |
| 20260831131607 | 28 | 254 | 8.0 | 22.5 | 0.00 | 0.00 | 0.00 | 28 | 1022.0 |
| 20260831130141 | 28 | 249 | 17.7 | 29.0 | 0.00 | 0.00 | 0.00 | 27 | 1022.0 |
| 20260831124603 | 28 | 226 | 4.8 | 17.7 | 0.00 | 0.00 | 0.00 | 30 | 1022.0 |
| 20260831123119 | 28 | 229 | 9.7 | 27.4 | 0.00 | 0.00 | 0.00 | 29 | 1022.4 |
| 20260831121608 | 28 | 215 | 11.3 | 22.5 | 0.00 | 0.00 | 0.00 | 31 | 1022.4 |
| 20260831120147 | 27 | 236 | 11.3 | 20.9 | 0.00 | 0.00 | 0.00 | 31 | 1022.4 |
| 20260831114607 | 27 | 0 | 8.0 | 17.7 | 0.00 | 0.00 | 0.00 | 34 | 1022.6 |
| 20260831113109 | 27 | 246 | 4.8 | 9.7 | 0.00 | 0.00 | 0.00 | 36 | 1022.7 |
| 20260831111605 | 27 | 232 | 8.0 | 14.5 | 0.00 | 0.00 | 0.00 | 37 | 1022.9 |
| 20260831110110 | 26 | 0 | 0.0 | 9.7 | 0.00 | 0.00 | 0.00 | 41 | 1022.8 |
| 20260831104607 | 25 | 24 | 3.2 | 8.0 | 0.00 | 0.00 | 0.00 | 43 | 1023.0 |
| 20260831103104 | 25 | 247 | 3.2 | 9.7 | 0.00 | 0.00 | 0.00 | 46 | 1023.0 |
| 20260831101621 | 23 | 312 | 4.8 | 9.7 | 0.00 | 0.00 | 0.00 | 47 | 1023.2 |
| 20260831094610 | 22 | 41 | 6.4 | 16.1 | 0.00 | 0.00 | 0.00 | 51 | 1023.4 |
| 20260831093113 | 22 | 52 | 3.2 | 14.5 | 0.00 | 0.00 | 0.00 | 53 | 1023.3 |
| 20260831091605 | 21 | 39 | 9.7 | 17.7 | 0.00 | 0.00 | 0.00 | 54 | 1023.4 |
| 20260831090124 | 21 | 59 | 4.8 | 12.9 | 0.00 | 0.00 | 0.00 | 57 | 1023.3 |
| 20260831084603 | 20 | 47 | 3.2 | 14.5 | 0.00 | 0.00 | 0.00 | 60 | 1023.2 |
| 20260831083104 | 20 | 77 | 6.4 | 14.5 | 0.00 | 0.00 | 0.00 | 61 | 1023.2 |
| 20260831081603 | 19 | 56 | 6.4 | 12.9 | 0.00 | 0.00 | 0.00 | 61 | 1023.2 |
| 20260831080110 | 19 | 56 | 3.2 | 9.7 | 0.00 | 0.00 | 0.00 | 63 | 1023.1 |
| 20260831074603 | 18 | 71 | 3.2 | 9.7 | 0.00 | 0.00 | 0.00 | 65 | 1023.0 |
| 20260831073118 | 17 | 61 | 3.2 | 11.3 | 0.00 | 0.00 | 0.00 | 66 | 1023.1 |
| 20260831071609 | 16 | 103 | 4.8 | 8.0 | 0.00 | 0.00 | 0.00 | 66 | 1022.9 |
| 20260831070138 | 16 | 106 | 3.2 | 6.4 | 0.00 | 0.00 | 0.00 | 63 | 1022.8 |
| 20260831064606 | 16 | 0 | 0.0 | 3.2 | 0.00 | 0.00 | 0.00 | 59 | 1022.9 |
| 20260831063114 | 15 | 0 | 0.0 | 3.2 | 0.00 | 0.00 | 0.00 | 63 | 1023.0 |
| 20260831061611 | 15 | 49 | 0.0 | 3.2 | 0.00 | 0.00 | 0.00 | 62 | 1022.8 |
| 20260831060113 | 15 | 53 | 0.0 | 3.2 | 0.00 | 0.00 | 0.00 | 63 | 1022.8 |
| 20260831054605 | 15 | 0 | 0.0 | 4.8 | 0.00 | 0.00 | 0.00 | 63 | 1022.7 |
| 20260831053109 | 14 | 68 | 3.2 | 6.4 | 0.00 | 0.00 | 0.00 | 64 | 1022.6 |
| 20260831051622 | 15 | 68 | 4.8 | 8.0 | 0.00 | 0.00 | 0.00 | 62 | 1022.6 |
| 20260831050119 | 15 | 70 | 3.2 | 11.3 | 0.00 | 0.00 | 0.00 | 61 | 1022.4 |
| 20260831044605 | 14 | 60 | 6.4 | 9.7 | 0.00 | 0.00 | 0.00 | 60 | 1022.3 |
| 20260831043108 | 14 | 63 | 3.2 | 6.4 | 0.00 | 0.00 | 0.00 | 60 | 1022.2 |
| 20260831041613 | 15 | 65 | 3.2 | 8.0 | 0.00 | 0.00 | 0.00 | 60 | 1022.4 |
| 20260831034603 | 14 | 113 | 0.0 | 3.2 | 0.00 | 0.00 | 0.00 | 62 | 1022.3 |
| 20260831033109 | 15 | 97 | 1.6 | 4.8 | 0.00 | 0.00 | 0.00 | 58 | 1022.3 |
| 20260831031608 | 15 | 74 | 0.0 | 6.4 | 0.00 | 0.00 | 0.00 | 59 | 1022.1 |
| 20260831030105 | 15 | 56 | 0.0 | 6.4 | 0.00 | 0.00 | 0.00 | 59 | 1022.2 |
| 20260831024619 | 16 | 89 | 1.6 | 4.8 | 0.00 | 0.00 | 0.00 | 59 | 1022.2 |
| 20260831023107 | 16 | 0 | 0.0 | 4.8 | 0.00 | 0.00 | 0.00 | 59 | 1022.1 |
| 20260831021605 | 16 | 0 | 1.6 | 4.8 | 0.00 | 0.00 | 0.00 | 58 | 1022.1 |
| 20260831020109 | 16 | 0 | 0.0 | 1.6 | 0.00 | 0.00 | 0.00 | 57 | 1022.0 |
| 20260831014610 | 17 | 108 | 0.0 | 8.0 | 0.00 | 0.00 | 0.00 | 57 | 1022.0 |
| 20260831013104 | 17 | 113 | 0.0 | 4.8 | 0.00 | 0.00 | 0.00 | 57 | 1022.0 |
| 20260831011604 | 18 | 46 | 3.2 | 6.4 | 0.00 | 0.00 | 0.00 | 55 | 1022.0 |
| 20260831010134 | 18 | 0 | 0.0 | 6.4 | 0.00 | 0.00 | 0.00 | 55 | 1022.1 |
| 20260831004602 | 18 | 57 | 1.6 | 6.4 | 0.00 | 0.00 | 0.00 | 56 | 1022.0 |
| 20260831003111 | 18 | 41 | 3.2 | 8.0 | 0.00 | 0.00 | 0.00 | 56 | 1022.0 |
| 20260831001609 | 18 | 0 | 0.0 | 8.0 | 0.00 | 0.00 | 0.00 | 56 | 1022.1 |
| 20260831000109 | 18 | 51 | 1.6 | 6.4 | 0.00 | 0.00 | 0.00 | 56 | 1022.1 |
| 20260830234611 | 18 | 64 | 1.6 | 4.8 | 0.00 | 0.00 | 0.00 | 56 | 1022.2 |
| 20260830233105 | 19 | 43 | 4.8 | 8.0 | 0.00 | 0.00 | 0.00 | 55 | 1022.1 |
| 20260830231603 | 20 | 53 | 0.0 | 3.2 | 0.00 | 0.00 | 0.00 | 54 | 1022.1 |
| 20260830230109 | 20 | 63 | 0.0 | 6.4 | 0.00 | 0.00 | 0.00 | 53 | 1022.0 |
| 20260830224610 | 20 | 52 | 1.6 | 6.4 | 0.00 | 0.00 | 0.00 | 54 | 1021.9 |
| 20260830223103 | 20 | 52 | 1.6 | 6.4 | 0.00 | 0.00 | 0.00 | 54 | 1022.0 |
| 20260830221605 | 20 | 67 | 3.2 | 6.4 | 0.00 | 0.00 | 0.00 | 54 | 1021.9 |
| 20260830220131 | 21 | 42 | 3.2 | 4.8 | 0.00 | 0.00 | 0.00 | 53 | 1021.9 |
| 20260830214605 | 21 | 53 | 3.2 | 8.0 | 0.00 | 0.00 | 0.00 | 52 | 1022.0 |
| 20260830213112 | 21 | 350 | 3.2 | 6.4 | 0.00 | 0.00 | 0.00 | 51 | 1021.9 |
| 20260830211626 | 21 | 63 | 1.6 | 6.4 | 0.00 | 0.00 | 0.00 | 50 | 1021.8 |
| 20260830210106 | 21 | 0 | 0.0 | 3.2 | 0.00 | 0.00 | 0.00 | 49 | 1021.7 |
| 20260830204604 | 22 | 37 | 0.0 | 3.2 | 0.00 | 0.00 | 0.00 | 48 | 1021.7 |
| 20260830203123 | 22 | 0 | 0.0 | 3.2 | 0.00 | 0.00 | 0.00 | 47 | 1021.6 |
| 20260830201602 | 23 | 0 | 1.6 | 6.4 | 0.00 | 0.00 | 0.00 | 47 | 1021.5 |
| 20260830200105 | 23 | 129 | 0.0 | 9.7 | 0.00 | 0.00 | 0.00 | 44 | 1021.4 |
| 20260830194607 | 23 | 16 | 3.2 | 6.4 | 0.00 | 0.00 | 0.00 | 43 | 1021.2 |
| 20260830193106 | 23 | 34 | 4.8 | 11.3 | 0.00 | 0.00 | 0.00 | 39 | 1021.0 |
| 20260830191602 | 25 | 0 | 0.0 | 6.4 | 0.00 | 0.00 | 0.00 | 34 | 1020.6 |
| 20260830190107 | 25 | 213 | 3.2 | 11.3 | 0.00 | 0.00 | 0.00 | 33 | 1020.3 |